K0HYD Weather Reports


Display with metric or nautical units.
time (UTC)temp
F
wind
direction
speed
MPH
gust
MPH
rain 1hr
in
rain 24hr
in
rain mn
in
humidity
%
barometer
mb
20260902173625 98 221 4.0 7.0 0.00 0.00 0.00 40 1011.6
20260902172124 98 207 5.0 10.0 0.00 0.00 0.00 40 1011.8
20260902170623 96 230 2.0 13.0 0.00 0.00 0.00 42 1011.9
20260902165122 96 203 0.0 7.0 0.00 0.00 0.00 42 1012.1
20260902163621 95 212 0.0 7.0 0.00 0.00 0.00 43 1012.3
20260902162120 94 200 0.0 9.0 0.00 0.00 0.00 45 1012.5
20260902160619 93 131 0.0 6.0 0.00 0.00 0.00 46 1012.6
20260902155118 92 221 0.0 7.0 0.00 0.00 0.00 48 1012.7
20260902153617 92 158 0.0 7.0 0.00 0.00 0.00 49 1012.7
20260902152116 90 179 4.0 6.0 0.00 0.00 0.00 51 1012.7
20260902150615 89 260 0.0 2.0 0.00 0.00 0.00 52 1012.5
20260902145115 88 200 0.0 2.0 0.00 0.00 0.00 54 1012.6
20260902143613 86 155 1.0 6.0 0.00 0.00 0.00 56 1012.8
20260902142112 84 237 0.0 2.0 0.00 0.00 0.00 60 1012.8
20260902140612 82 205 0.0 5.0 0.00 0.00 0.00 63 1012.8
20260902135111 80 200 0.0 1.0 0.00 0.00 0.00 64 1012.8
20260902133609 79 148 0.0 1.0 0.00 0.00 0.00 66 1012.7
20260902132109 78 198 0.0 5.0 0.00 0.00 0.00 67 1012.7
20260902130607 76 121 0.0 0.0 0.00 0.00 0.00 69 1012.7
20260902125107 76 167 0.0 1.0 0.00 0.00 0.00 70 1012.6
20260902123606 74 206 0.0 0.0 0.00 0.00 0.00 71 1012.6
20260902122105 74 198 0.0 0.0 0.00 0.00 0.00 71 1012.4
20260902120604 75 232 0.0 0.0 0.00 0.00 0.00 70 1012.3
20260902115103 75 163 0.0 0.0 0.00 0.00 0.00 69 1012.3
20260902113602 75 222 0.0 0.0 0.00 0.00 0.00 69 1012.3
20260902103558 76 210 0.0 0.0 0.00 0.00 0.00 67 1012.0
20260902102057 76 236 0.0 0.0 0.00 0.00 0.00 66 1011.9
20260902100556 76 222 0.0 0.0 0.00 0.00 0.00 65 1012.0
20260902095055 76 248 0.0 0.0 0.00 0.00 0.00 64 1011.7
20260902093554 77 232 0.0 0.0 0.00 0.00 0.00 63 1011.8
20260902092053 77 203 0.0 0.0 0.00 0.00 0.00 63 1011.8
20260902090552 77 210 0.0 1.0 0.00 0.00 0.00 63 1011.7
20260902085051 77 226 0.0 1.0 0.00 0.00 0.00 63 1011.6
20260902083550 77 193 0.0 0.0 0.00 0.00 0.00 61 1011.6
20260902082049 78 155 0.0 1.0 0.00 0.00 0.00 60 1011.6
20260902080548 78 152 0.0 0.0 0.00 0.00 0.00 59 1011.5
20260902075047 78 155 0.0 3.0 0.00 0.00 0.00 59 1011.6
20260902073547 79 153 0.0 1.0 0.00 0.00 0.00 58 1011.6
20260902072045 79 150 0.0 2.0 0.00 0.00 0.00 57 1011.5
20260902065043 80 133 0.0 1.0 0.00 0.00 0.00 54 1011.4
20260902063542 80 164 0.0 1.0 0.00 0.00 0.00 53 1011.4
20260902060541 81 155 0.0 1.0 0.00 0.00 0.00 51 1011.3
20260902055040 82 155 0.0 3.0 0.00 0.00 0.00 50 1011.3
20260902050537 82 150 0.0 1.0 0.00 0.00 0.00 48 1011.4
20260902043535 83 164 0.0 1.0 0.00 0.00 0.00 47 1011.4
20260902042034 84 167 0.0 2.0 0.00 0.00 0.00 46 1011.2
20260902040533 84 173 3.0 6.0 0.00 0.00 0.00 45 1011.3
20260902035032 85 155 0.0 5.0 0.00 0.00 0.00 44 1011.3
20260902033531 86 138 0.0 4.0 0.00 0.00 0.00 43 1011.3
20260902032030 86 158 0.0 1.0 0.00 0.00 0.00 43 1011.2
20260902030529 86 128 2.0 2.0 0.00 0.00 0.00 42 1011.0
20260902025028 86 170 0.0 1.0 0.00 0.00 0.00 42 1010.9
20260902023527 87 143 0.0 3.0 0.00 0.00 0.00 41 1010.7
20260902022026 88 123 0.0 3.0 0.00 0.00 0.00 40 1010.4
20260902020526 89 132 0.0 6.0 0.00 0.00 0.00 39 1010.2
20260902015025 90 136 0.0 6.0 0.00 0.00 0.00 38 1010.1
20260902013523 90 194 0.0 5.0 0.00 0.00 0.00 37 1009.9
20260902012023 91 149 3.0 5.0 0.00 0.00 0.00 36 1009.9
20260902005020 93 115 0.0 6.0 0.00 0.00 0.00 32 1009.7
20260902003520 94 125 0.0 4.0 0.00 0.00 0.00 32 1009.7
20260902002019 95 160 0.0 6.0 0.00 0.00 0.00 31 1009.8
20260902000518 96 155 5.0 6.0 0.00 0.00 0.00 30 1009.8
20260901235017 97 139 7.0 12.0 0.00 0.00 0.00 30 1009.8
20260901233516 98 117 0.0 8.0 0.00 0.00 0.00 30 1009.8
20260901232015 99 146 0.0 6.0 0.00 0.00 0.00 29 1009.8
20260901230514 100 215 0.0 6.0 0.00 0.00 0.00 29 1009.9
20260901225013 99 176 0.0 7.0 0.00 0.00 0.00 28 1009.8
20260901223512 99 197 0.0 7.0 0.00 0.00 0.00 29 1009.9
20260901222011 100 193 0.0 6.0 0.00 0.00 0.00 28 1009.9
20260901220510 101 128 0.0 7.0 0.00 0.00 0.00 28 1009.9
20260901215009 101 158 0.0 8.0 0.00 0.00 0.00 29 1009.9
20260901213508 102 200 0.0 6.0 0.00 0.00 0.00 28 1010.0
20260901212007 101 227 0.0 17.0 0.00 0.00 0.00 27 1010.3
20260901210506 101 197 0.0 11.0 0.00 0.00 0.00 28 1010.4
20260901205005 100 235 0.0 6.0 0.00 0.00 0.00 28 1010.7
20260901203504 101 143 0.0 12.0 0.00 0.00 0.00 28 1010.9
20260901202003 101 229 0.0 6.0 0.00 0.00 0.00 28 1011.1
20260901200502 101 231 0.0 8.0 0.00 0.00 0.00 29 1011.3
20260901195001 101 205 0.0 1.0 0.00 0.00 0.00 29 1011.5
20260901193500 101 261 0.0 7.0 0.00 0.00 0.00 30 1011.7
20260901191959 100 194 0.0 6.0 0.00 0.00 0.00 31 1011.7
20260901184958 100 136 2.0 6.0 0.00 0.00 0.00 31 1012.1
20260901183456 99 232 7.0 7.0 0.00 0.00 0.00 31 1012.3
20260901180455 100 235 0.0 7.0 0.00 0.00 0.00 31 1012.7
20260901174953 99 107 3.0 13.0 0.00 0.00 0.00 34 1012.8